Middletown, OH

8:56 AM EDT on April 29, 2017 (GMT -0400)
Hook Field Municipal

Weather History for KMWO - March, 2014

Change the Weather History Date:

Thursday, March 6, 2014

  Actual Average (KFFO) Record (KFFO)
Temperature  
Mean Temperature 33 °F -  
Max Temperature 46 °F 43 °F 64 °F (2009)
Min Temperature 20 °F 24 °F 5 °F (2015)
Degree Days  
Heating Degree Days 32    
Moisture  
Dew Point 16 °F    
Average Humidity 56    
Maximum Humidity 82    
Minimum Humidity 32    
Precipitation  
Precipitation 0.00 in - - ()
Sea Level Pressure  
Sea Level Pressure 30.25 in    
Wind  
Wind Speed 7 mph (NE)    
Max Wind Speed 10 mph    
Max Gust Speed -    
Visibility 10 miles    
Events      
Averages and records for this station are not official NWS values.
T = Trace of Precipitation, MM = Missing Value Source: NWS Daily Summary

Daily Weather History Graph

Daily Weather History Graph

Search for Another Location

Airport or City:

Trip Planner

Search our weather history database for the weather conditions in past years. The results will help you decide how hot, cold, wet, or windy it might be!

Date:

Astronomy

Mar. 06, 2014 Rise Set
Actual Time 7:03 AM EST 6:35 PM EST
Civil Twilight 6:36 AM EST 7:02 PM EST
Nautical Twilight 6:05 AM EST 7:33 PM EST
Astronomical Twilight 5:33 AM EST 8:04 PM EST
Moon 10:11 AM EST (3/6) No Moon Set
Length of Visible Light 12h 25m
Length of Day
11h 32m
Waxing Crescent, 32% of the Moon is Illuminated
Mar 6
Waxing Crescent
Mar 8
First Quarter
Mar 16
Full
Mar 23
Last Quarter
Mar 30
New

Hourly Weather History & Observations

Time (EST) Temp. Windchill Dew Point Humidity Pressure Visibility Wind Dir Wind Speed Gust Speed Precip Events Conditions
12:15 AM 25.3 °F 16.0 °F 13.8 °F 62% 30.37 in 10.0 mi NE 9.2 mph - N/A   Clear
12:35 AM 23.9 °F 14.2 °F 12.4 °F 62% 30.37 in 10.0 mi NE 9.2 mph - N/A   Clear
12:55 AM 23.0 °F 13.9 °F 10.9 °F 60% 30.37 in 10.0 mi ENE 8.1 mph - N/A   Clear
1:15 AM 22.8 °F 12.2 °F 11.1 °F 61% 30.37 in 10.0 mi NE 10.4 mph - N/A   Clear
1:35 AM 22.8 °F 14.5 °F 11.3 °F 61% 30.36 in 10.0 mi NE 6.9 mph - N/A   Clear
1:55 AM 22.8 °F 12.2 °F 11.7 °F 62% 30.36 in 10.0 mi NE 10.4 mph - N/A   Clear
2:15 AM 22.8 °F 13.6 °F 11.8 °F 63% 30.35 in 10.0 mi NE 8.1 mph - N/A   Clear
2:35 AM 22.8 °F 13.6 °F 12.0 °F 63% 30.35 in 10.0 mi NE 8.1 mph - N/A   Clear
2:55 AM 22.5 °F 14.1 °F 11.5 °F 63% 30.35 in 10.0 mi NNE 6.9 mph - N/A   Clear
3:15 AM 22.8 °F 13.6 °F 11.8 °F 63% 30.34 in 10.0 mi NE 8.1 mph - N/A   Clear
3:35 AM 21.7 °F 11.5 °F 10.9 °F 63% 30.33 in 10.0 mi NE 9.2 mph - N/A   Clear
3:55 AM 21.6 °F 11.3 °F 10.8 °F 63% 30.33 in 10.0 mi NE 9.2 mph - N/A   Clear
4:15 AM 21.6 °F 12.1 °F 10.6 °F 63% 30.32 in 10.0 mi NE 8.1 mph - N/A   Clear
4:35 AM 21.6 °F 13.0 °F 10.6 °F 63% 30.33 in 10.0 mi NE 6.9 mph - N/A   Clear
4:55 AM 21.6 °F 13.0 °F 10.6 °F 63% 30.34 in 10.0 mi NE 6.9 mph - N/A   Clear
5:15 AM 21.2 °F 10.9 °F 10.6 °F 64% 30.33 in 10.0 mi NE 9.2 mph - N/A   Clear
5:35 AM 21.0 °F 12.4 °F 10.6 °F 64% 30.34 in 10.0 mi NE 6.9 mph - N/A   Clear
5:55 AM 21.0 °F 13.4 °F 10.4 °F 64% 30.35 in 10.0 mi NE 5.8 mph - N/A   Clear
6:15 AM 21.0 °F 11.4 °F 10.8 °F 65% 30.34 in 10.0 mi NE 8.1 mph - N/A   Clear
6:35 AM 20.5 °F 9.2 °F 10.4 °F 65% 30.33 in 10.0 mi NE 10.4 mph - N/A   Clear
6:55 AM 20.3 °F 9.8 °F 10.0 °F 65% 30.33 in 10.0 mi NE 9.2 mph - N/A   Clear
7:15 AM 20.3 °F 10.6 °F 10.2 °F 65% 30.33 in 10.0 mi NE 8.1 mph - N/A   Clear
7:35 AM 21.0 °F 11.4 °F 10.4 °F 64% 30.34 in 10.0 mi NE 8.1 mph - N/A   Clear
7:55 AM 21.0 °F 11.4 °F 10.0 °F 63% 30.35 in 10.0 mi NE 8.1 mph - N/A   Clear
8:15 AM 22.6 °F 12.6 °F 10.8 °F 60% 30.35 in 10.0 mi NE 9.2 mph - N/A   Clear
8:35 AM 23.0 °F 14.7 °F 10.2 °F 58% 30.35 in 10.0 mi ENE 6.9 mph - N/A   Clear
8:55 AM 25.3 °F 16.0 °F 11.7 °F 56% 30.34 in 10.0 mi ENE 9.2 mph - N/A   Clear
9:15 AM 27.9 °F 19.8 °F 13.6 °F 55% 30.34 in 10.0 mi East 8.1 mph - N/A   Clear
9:35 AM 27.9 °F 19.1 °F 12.9 °F 54% 30.34 in 10.0 mi ENE 9.2 mph - N/A   Clear
9:55 AM 27.9 °F 18.4 °F 12.2 °F 52% 30.32 in 10.0 mi ENE 10.4 mph - N/A   Clear
10:15 AM 29.1 °F 21.3 °F 12.6 °F 50% 30.31 in 10.0 mi ENE 8.1 mph - N/A   Clear
10:35 AM 31.5 °F 24.2 °F 14.7 °F 50% 30.29 in 10.0 mi East 8.1 mph - N/A   Clear
10:55 AM 32.5 °F 26.2 °F 14.5 °F 48% 30.29 in 10.0 mi East 6.9 mph - N/A   Clear
11:15 AM 32.5 °F 27.1 °F 13.5 °F 45% 30.28 in 10.0 mi NE 5.8 mph - N/A   Clear
11:35 AM 34.9 °F 29.9 °F 14.9 °F 44% 30.28 in 10.0 mi NE 5.8 mph - N/A   Clear
11:55 AM 35.1 °F 30.1 °F 15.1 °F 44% 30.28 in 10.0 mi NNE 5.8 mph - N/A   Clear
12:15 PM 37.2 °F 34.7 °F 15.4 °F 41% 30.27 in 10.0 mi NNE 3.5 mph - N/A   Clear
12:40 PM 37.9 °F 33.5 °F 15.1 °F 39% 30.25 in 10.0 mi NE 5.8 mph - N/A   Clear
12:55 PM 38.8 °F 35.4 °F 14.4 °F 37% 30.24 in 10.0 mi East 4.6 mph - N/A   Clear
1:15 PM 40.1 °F 36.9 °F 15.8 °F 37% 30.23 in 10.0 mi ENE 4.6 mph - N/A   Clear
1:35 PM 41.2 °F 39.2 °F 14.4 °F 34% 30.22 in 10.0 mi ENE 3.5 mph - N/A   Clear
1:55 PM 41.9 °F - 14.2 °F 33% 30.22 in 10.0 mi Calm Calm - N/A   Clear
2:15 PM 42.1 °F 39.2 °F 15.3 °F 34% 30.21 in 10.0 mi North 4.6 mph - N/A   Clear
2:35 PM 43.9 °F 39.3 °F 16.7 °F 34% 30.20 in 10.0 mi NE 8.1 mph - N/A   Clear
2:55 PM 45.1 °F 42.8 °F 16.5 °F 32% 30.19 in 10.0 mi NNE 4.6 mph - N/A   Clear
3:15 PM 45.1 °F 42.0 °F 17.8 °F 34% 30.19 in 10.0 mi ENE 5.8 mph - N/A   Clear
3:35 PM 45.1 °F 41.4 °F 19.0 °F 35% 30.18 in 10.0 mi NE 6.9 mph - N/A   Clear
3:55 PM 45.1 °F 41.4 °F 19.8 °F 36% 30.18 in 10.0 mi ENE 6.9 mph - N/A   Clear
4:15 PM 45.1 °F 41.4 °F 19.8 °F 36% 30.17 in 10.0 mi ENE 6.9 mph - N/A   Clear
4:35 PM 45.1 °F 42.0 °F 19.4 °F 36% 30.17 in 10.0 mi East 5.8 mph - N/A   Clear
4:55 PM 46.6 °F - 20.3 °F 35% 30.16 in 10.0 mi East 6.9 mph - N/A   Clear
5:20 PM 45.1 °F 40.8 °F 20.8 °F 38% 30.15 in 10.0 mi East 8.1 mph - N/A   Clear
5:35 PM 44.2 °F 39.2 °F 21.2 °F 40% 30.15 in 10.0 mi ENE 9.2 mph - N/A   Clear
5:55 PM 42.1 °F 37.1 °F 20.8 °F 43% 30.15 in 10.0 mi East 8.1 mph - N/A   Clear
6:15 PM 41.5 °F 35.9 °F 20.3 °F 43% 30.16 in 10.0 mi ESE 9.2 mph - N/A   Clear
6:35 PM 40.1 °F 34.7 °F 21.7 °F 48% 30.16 in 10.0 mi East 8.1 mph - N/A   Clear
6:55 PM 38.8 °F 33.8 °F 22.3 °F 51% 30.16 in 10.0 mi East 6.9 mph - N/A   Clear
7:15 PM 37.6 °F 33.1 °F 22.8 °F 55% 30.16 in 10.0 mi East 5.8 mph - N/A   Clear
7:35 PM 37.6 °F 34.0 °F 22.1 °F 54% 30.16 in 10.0 mi NE 4.6 mph - N/A   Clear
7:55 PM 36.9 °F 34.3 °F 24.4 °F 61% 30.16 in 10.0 mi NNE 3.5 mph - N/A   Clear
8:15 PM 32.5 °F 28.1 °F 24.3 °F 72% 30.16 in 10.0 mi NNE 4.6 mph - N/A   Clear
8:35 PM 32.5 °F 29.3 °F 24.3 °F 72% 30.15 in 10.0 mi NE 3.5 mph - N/A   Clear
8:55 PM 32.5 °F 28.1 °F 23.5 °F 69% 30.15 in 10.0 mi NNE 4.6 mph - N/A   Clear
9:15 PM 30.6 °F 27.1 °F 24.1 °F 77% 30.15 in 10.0 mi NNE 3.5 mph - N/A   Clear
9:35 PM 28.9 °F - 21.7 °F 74% 30.15 in 10.0 mi Calm Calm - N/A   Clear
10:00 PM 28.9 °F - 21.9 °F 75% 30.15 in 10.0 mi Calm Calm - N/A   Clear
10:15 PM 27.9 °F - 21.9 °F 78% 30.15 in 10.0 mi Calm Calm - N/A   Clear
10:35 PM 28.0 °F - 21.9 °F 78% 30.14 in 10.0 mi Calm Calm - N/A   Clear
10:55 PM 27.9 °F - 21.6 °F 77% 30.14 in 10.0 mi Calm Calm - N/A   Clear
11:15 PM 28.9 °F - 23.5 °F 80% 30.13 in 10.0 mi Calm Calm - N/A   Clear
11:35 PM 27.9 °F - 22.8 °F 81% 30.12 in 10.0 mi Calm Calm - N/A   Clear
11:55 PM 27.9 °F - 23.0 °F 82% 30.11 in 10.0 mi Calm Calm - N/A   Clear